Total_Precipitation_Accumulation
1.11 1.20 1.23 1.06 0.82 0.72 0.72 0.71 0.70 0.73 0.78 0.83 0.76 0.74 0.81 0.85 0.81 0.91 1.02 1.12 1.23 1.33 1.34 1.40 1.48 1.47 1.62 1.65 1.72 1.80 1.83 1.80 1.59 1.38 1.24 1.25 1.26 1.22 1.18 1.09 1.14 1.19 1.09
1.03 0.99 0.83 0.67 0.57 0.54 0.51 0.47 0.46 0.48 0.49 0.53 0.53 0.52 0.59 0.72 0.73 0.79 0.85 0.85 0.94 1.07 1.15 1.20 1.21 1.23 1.34 1.42 1.49 1.56 1.68 1.73 1.63 1.46 1.33 1.25 1.13 1.13 1.27 1.31 1.29 1.21 1.21
0.65 0.67 0.60 0.51 0.47 0.45 0.40 0.39 0.37 0.41 0.41 0.42 0.43 0.46 0.48 0.57 0.70 0.74 0.74 0.73 0.73 0.77 0.83 0.89 0.94 1.03 1.19 1.24 1.27 1.36 1.50 1.55 1.65 1.53 1.43 1.34 1.18 1.11 1.26 1.28 1.34 1.50 1.41
0.43 0.46 0.45 0.41 0.41 0.43 0.41 0.41 0.38 0.38 0.39 0.37 0.35 0.36 0.43 0.54 0.63 0.71 0.72 0.69 0.68 0.71 0.74 0.73 0.74 0.80 0.91 1.05 1.13 1.30 1.45 1.58 1.64 1.57 1.52 1.47 1.39 1.27 1.33 1.43 1.48 1.58 1.61
0.33 0.34 0.39 0.41 0.40 0.39 0.39 0.37 0.36 0.36 0.34 0.29 0.27 0.30 0.37 0.44 0.50 0.64 0.66 0.67 0.71 0.68 0.70 0.72 0.72 0.72 0.75 0.80 0.79 0.96 1.17 1.41 1.52 1.56 1.55 1.57 1.52 1.46 1.39 1.52 1.58 1.70 1.79
0.23 0.24 0.31 0.37 0.38 0.39 0.35 0.33 0.31 0.32 0.31 0.29 0.26 0.27 0.28 0.28 0.44 0.52 0.57 0.64 0.71 0.77 0.76 0.76 0.73 0.70 0.76 0.74 0.71 0.73 0.85 1.00 1.18 1.30 1.36 1.41 1.47 1.56 1.67 1.67 1.64 1.69 1.74
0.21 0.24 0.29 0.31 0.29 0.32 0.33 0.28 0.23 0.26 0.26 0.26 0.27 0.27 0.28 0.27 0.29 0.31 0.45 0.59 0.70 0.74 0.74 0.86 0.89 0.80 0.81 0.83 0.84 0.77 0.71 0.71 0.86 1.07 1.20 1.24 1.31 1.38 1.62 1.67 1.67 1.70 1.60
0.23 0.24 0.27 0.28 0.27 0.26 0.27 0.24 0.21 0.24 0.27 0.27 0.32 0.32 0.29 0.24 0.24 0.22 0.31 0.47 0.61 0.65 0.66 0.77 1.02 1.04 0.93 0.89 0.93 1.00 0.89 0.72 0.72 0.78 0.96 1.11 1.14 1.28 1.61 1.83 1.78 1.57 1.51
0.26 0.24 0.24 0.25 0.27 0.27 0.23 0.21 0.20 0.24 0.27 0.26 0.28 0.30 0.28 0.26 0.25 0.25 0.28 0.39 0.51 0.54 0.56 0.67 0.83 0.96 0.92 0.89 0.89 0.97 0.98 0.85 0.79 0.81 0.78 0.86 0.99 1.16 1.41 1.67 1.79 1.73 1.56
0.27 0.27 0.26 0.24 0.22 0.25 0.24 0.24 0.22 0.25 0.28 0.29 0.28 0.25 0.24 0.24 0.26 0.27 0.28 0.32 0.37 0.37 0.43 0.60 0.78 0.76 0.73 0.78 0.87 0.98 1.08 0.91 0.81 0.89 0.86 0.88 0.90 1.09 1.42 1.62 1.75 1.74 1.62
0.31 0.34 0.33 0.29 0.27 0.31 0.32 0.31 0.28 0.28 0.31 0.32 0.30 0.27 0.26 0.26 0.28 0.29 0.31 0.30 0.34 0.35 0.40 0.53 0.58 0.55 0.55 0.64 0.75 0.85 1.00 0.89 0.90 1.03 1.05 1.01 1.08 1.11 1.21 1.35 1.56 1.70 1.63
0.34 0.36 0.37 0.37 0.36 0.37 0.39 0.39 0.38 0.36 0.36 0.38 0.39 0.36 0.33 0.32 0.30 0.30 0.33 0.35 0.37 0.38 0.43 0.47 0.47 0.45 0.46 0.50 0.54 0.65 0.79 0.90 0.99 1.12 1.17 1.12 1.06 1.10 1.15 1.18 1.28 1.39 1.39
0.38 0.38 0.39 0.41 0.41 0.39 0.40 0.42 0.42 0.38 0.37 0.38 0.40 0.41 0.41 0.38 0.34 0.32 0.32 0.35 0.38 0.39 0.41 0.47 0.49 0.50 0.51 0.49 0.49 0.58 0.73 0.90 1.09 1.13 1.04 0.98 1.01 1.04 1.05 1.16 1.23 1.26 1.27
0.42 0.42 0.41 0.41 0.40 0.39 0.39 0.39 0.38 0.38 0.35 0.36 0.40 0.41 0.41 0.39 0.33 0.30 0.32 0.34 0.38 0.40 0.44 0.48 0.49 0.52 0.51 0.48 0.53 0.66 0.80 1.00 1.09 1.04 0.99 0.85 0.84 0.97 1.02 1.03 1.06 1.07 1.11
0.45 0.45 0.44 0.41 0.38 0.38 0.37 0.37 0.37 0.36 0.39 0.41 0.42 0.45 0.42 0.38 0.39 0.42 0.40 0.36 0.36 0.37 0.41 0.48 0.53 0.58 0.62 0.67 0.75 0.83 0.84 0.89 0.94 0.88 0.93 0.86 0.80 0.84 0.88 0.88 0.89 0.85 0.86
0.43 0.44 0.43 0.44 0.41 0.38 0.37 0.37 0.41 0.43 0.46 0.41 0.41 0.42 0.40 0.38 0.43 0.40 0.41 0.42 0.41 0.43 0.47 0.51 0.58 0.67 0.73 0.81 0.87 0.86 0.84 0.85 0.87 0.85 0.85 0.84 0.77 0.76 0.77 0.78 0.81 0.83 0.86
0.41 0.38 0.38 0.41 0.42 0.40 0.40 0.39 0.39 0.39 0.38 0.36 0.34 0.35 0.35 0.37 0.36 0.37 0.39 0.40 0.42 0.44 0.44 0.53 0.72 0.76 0.75 0.80 0.85 0.85 0.75 0.69 0.71 0.73 0.71 0.70 0.68 0.68 0.72 0.72 0.74 0.78 0.78
0.50 0.52 0.47 0.42 0.43 0.44 0.44 0.40 0.38 0.38 0.39 0.36 0.33 0.32 0.32 0.33 0.33 0.34 0.38 0.40 0.38 0.37 0.37 0.45 0.59 0.63 0.67 0.73 0.73 0.71 0.65 0.59 0.59 0.58 0.57 0.58 0.60 0.63 0.65 0.68 0.67 0.67 0.70
0.45 0.50 0.51 0.50 0.47 0.45 0.43 0.40 0.38 0.36 0.36 0.38 0.38 0.37 0.39 0.39 0.39 0.40 0.40 0.36 0.34 0.36 0.38 0.45 0.50 0.55 0.57 0.57 0.57 0.57 0.58 0.59 0.58 0.57 0.57 0.58 0.59 0.60 0.60 0.58 0.61 0.65 0.64
0.40 0.47 0.50 0.48 0.48 0.48 0.45 0.43 0.43 0.41 0.41 0.42 0.38 0.40 0.42 0.40 0.38 0.38 0.39 0.38 0.38 0.37 0.37 0.38 0.43 0.46 0.48 0.49 0.52 0.54 0.55 0.59 0.60 0.58 0.57 0.59 0.63 0.64 0.61 0.60 0.59 0.59 0.60
0.38 0.41 0.46 0.45 0.45 0.47 0.50 0.49 0.50 0.48 0.46 0.46 0.47 0.50 0.50 0.45 0.43 0.43 0.42 0.41 0.41 0.39 0.38 0.36 0.38 0.41 0.45 0.50 0.55 0.58 0.57 0.59 0.62 0.62 0.63 0.65 0.68 0.69 0.67 0.65 0.64 0.63 0.62
0.42 0.40 0.40 0.42 0.43 0.44 0.47 0.47 0.47 0.46 0.46 0.48 0.51 0.54 0.55 0.49 0.48 0.48 0.48 0.44 0.40 0.39 0.40 0.40 0.40 0.43 0.47 0.50 0.55 0.59 0.62 0.66 0.71 0.74 0.74 0.74 0.76 0.75 0.73 0.71 0.70 0.71 0.70
0.42 0.43 0.43 0.42 0.41 0.44 0.45 0.43 0.46 0.47 0.48 0.50 0.51 0.51 0.49 0.49 0.49 0.47 0.48 0.47 0.45 0.44 0.46 0.47 0.46 0.47 0.50 0.54 0.58 0.63 0.66 0.69 0.77 0.87 0.91 0.89 0.86 0.84 0.82 0.79 0.76 0.78 0.78
0.38 0.42 0.41 0.40 0.41 0.41 0.40 0.41 0.43 0.44 0.44 0.46 0.48 0.49 0.50 0.50 0.51 0.50 0.50 0.49 0.49 0.48 0.48 0.52 0.52 0.51 0.53 0.56 0.59 0.64 0.70 0.75 0.81 0.88 0.95 0.98 0.91 0.85 0.84 0.82 0.79 0.77 0.81
0.33 0.37 0.39 0.40 0.42 0.43 0.43 0.44 0.45 0.44 0.43 0.43 0.44 0.45 0.46 0.48 0.50 0.52 0.53 0.54 0.53 0.51 0.51 0.54 0.56 0.57 0.57 0.58 0.60 0.63 0.74 0.80 0.80 0.80 0.85 0.93 0.91 0.86 0.84 0.83 0.82 0.82 0.84
0.34 0.34 0.38 0.40 0.42 0.43 0.44 0.44 0.45 0.47 0.47 0.45 0.46 0.50 0.51 0.52 0.52 0.51 0.53 0.54 0.54 0.51 0.49 0.48 0.48 0.51 0.54 0.55 0.57 0.64 0.71 0.69 0.72 0.79 0.81 0.87 0.93 0.92 0.90 0.92 0.90 0.90 0.89